GSAT0206 (GALILEO 10) (40890 NORAD) Tracking and Keplerian Element Data

This shows tracking and keplerian element data for the satellite.

Feedback or suggestion? Click here.




ElementValue
Catalog40890
NameGSAT0206 (GALILEO 10)
Epoch Orbit3750
Epoch Day261.68336399
Epoch Year2021
RAAN269.4632
Inclination55.8098
Eccentricity0.0003169
Argument of Perigee311.5865
Mean Anonmoly48.4101
Mean Motion1.70475085
Decay Rate1.2E-07
L11 40890U 15045B 21261.68336399 .00000012 00000-0 00000+0 0 9997
L22 40890 55.8098 269.4632 0003169 311.5865 48.4101 1.70475085 37508

Live tracking and technical data element details for GSAT0206 (GALILEO 10) (NORAD 40890). GSAT0206 (GALILEO 10) can be tracked NOW for your location showing map with azimuth and elevation plus other details from your city location.

Track the satellite on the map from your city or location and see movement details for azimuth, elevation, latitude, longitude, range, height, and movement on the map or in text.







IsCatalogInMostPopularTable: catalog: 40890, numindb: 534
Update: records affected: 1



GetName: 40890 GSAT0206 (GALILEO 10)

Hit Count: updated at: Sun, 26 Sep 2021 00:20:34 GMT